Zurück zum Katalog

CZ-6A DEB

AktivPO
NORAD 61123·DEBRIS·🇨🇳 China

Gestartet Aug 6, 2024 von Taiyuan Satellite Launch Center

Loading…

Nächste Überflüge (nächste 24 Stunden)

TLE

AktuellSource: Space-Track

Epoche: Sep 14, 2026, 07:02 UTC

1 61123U 24140PR  26257.29368126  .00000461  00000-0  21216-3 0  9999
2 61123  88.9931 264.6108 0048623 258.5436 101.0290 14.18922924106817

Verfolge CZ-6A DEB in Echtzeit mit AllMySat

Download on the App Store